This is the latest recevied weather packets stored in our database for station/object ALAKES. If no packets are shown the sender has not sent any weather packets the latest 10 day(s).
| Time | Temp. | Humidity | Pressure | Rain* | Wind** | Luminosity | Snow |
|---|---|---|---|---|---|---|---|
| 1787679198 | 17.78° C | 37% | - | 0 mm | - | - | - |
| 1787678667 | 17.78° C | 35% | - | 0 mm | - | - | - |
| 1787678572 | 17.78° C | 35% | - | 0 mm | - | - | - |
| 1787677932 | 17.78° C | 34% | - | 0 mm | - | - | - |
| 1787677308 | 18.33° C | 35% | - | 0 mm | - | - | - |
| 1787676683 | 17.78° C | 35% | - | 0 mm | - | - | - |
| 1787676057 | 17.78° C | 35% | - | 0 mm | - | - | - |
| 1787675429 | 17.78° C | 36% | - | 0 mm | - | - | - |
| 1787674801 | 17.78° C | 36% | - | 0 mm | - | - | - |
| 1787674175 | 17.78° C | 35% | - | 0 mm | - | - | - |
| 1787673553 | 17.22° C | - | - | 0 mm | - | - | - |
| 1787672920 | 17.22° C | 34% | - | 0 mm | - | - | - |
| 1787672300 | 16.67° C | 34% | - | 0 mm | - | - | - |
| 1787671676 | 16.67° C | 32% | - | 0 mm | - | - | - |
| 1787671036 | 16.67° C | 30% | - | 0 mm | - | - | - |
| 1787670406 | 16.11° C | 29% | - | 0 mm | - | - | - |
| 1787669772 | 16.11° C | 30% | - | 0 mm | - | - | - |
| 1787669242 | 15.56° C | 30% | - | 0 mm | - | - | - |
| 1787669150 | 15.56° C | 30% | - | 0 mm | - | - | - |
| 1787668525 | 15.56° C | 32% | - | 0 mm | - | - | - |
| 1787667899 | 15° C | 33% | - | 0 mm | - | - | - |
| 1787667271 | 14.44° C | 34% | - | 0 mm | - | - | - |
| 1787666600 | 14.44° C | 37% | - | 0 mm | - | - | - |
| 1787666092 | 14.44° C | 38% | - | 0 mm | - | - | - |
| 1787665907 | 14.44° C | 38% | - | 0 mm | - | - | - |
* Rain latest 24 hours (hover to see other rain measurements)
** Current wind speed in m/s (hover to see current wind gust speed)